contact:dominique.lefevre@mio.osupytheas.fr, maurice.libes@osupytheas.fr, didier.mallarino@osupytheas.fr
Project:EMSO http://www.emso-fr.org/EMSO-France
Depth: 2436.0 m
Title:EMSO Ligure Ouest : Data MII capteur AQUADOPP
Date,Latitude,Longitude,X_East,Y_North,Z_Up,Amplitude_X,Amplitude_Y,Amplitude_Z,Batterie,SoundSpeed,Heading,Pitch,Roll,Pressure,TIS,Speed,Direction
, degrees North, degrees East, m.s-1, m.s-1,m.s-1, 1, 1, 1, Volt, m.s-1, degree, degree, degree, dbar, degree_C, m.s-1, degree
2023-01-04T00:04:03,42.805,6.029,-0.022,0.009,0.009,102.0,101.0,102.0,13.4,1505.2,327.9,-0.8,1.8,2471.163,13.29,0.023,292.2
2023-01-04T00:07:03,42.805,6.029,-0.008,-0.012,-0.017,101.0,101.0,102.0,13.4,1505.2,323.9,-0.8,1.8,2471.121,13.29,0.014,213.7
2023-01-04T00:10:03,42.805,6.029,-0.019,-0.024,-0.027,102.0,102.0,101.0,13.4,1505.2,330.7,-0.8,1.8,2471.153,13.29,0.03,218.4
2023-01-04T00:13:03,42.805,6.029,-0.038,0.018,-0.002,102.0,103.0,103.0,13.4,1505.2,328.1,-0.8,1.8,2471.144,13.29,0.042,295.3
2023-01-04T00:16:03,42.805,6.029,-0.006,-0.018,0.001,101.0,103.0,101.0,13.4,1505.2,326.5,-0.7,1.8,2471.146,13.29,0.018,198.4
2023-01-04T00:19:03,42.805,6.029,-0.027,-0.002,0.006,101.0,102.0,102.0,13.4,1505.2,325.8,-0.7,1.8,2471.118,13.29,0.027,265.8
2023-01-04T00:22:03,42.805,6.029,-0.024,0.001,0.003,101.0,101.0,102.0,13.3,1505.2,323.7,-0.7,1.8,2471.075,13.29,0.024,272.4
2023-01-04T00:25:03,42.805,6.029,-0.021,-0.007,-0.01,103.0,103.0,100.0,13.4,1505.2,328.0,-0.8,1.8,2471.101,13.29,0.022,251.6
2023-01-04T00:28:03,42.805,6.029,-0.003,-0.01,0.0,102.0,103.0,102.0,13.4,1505.2,316.4,-0.8,1.8,2471.054,13.29,0.01,196.7
2023-01-04T00:31:03,42.805,6.029,-0.039,-0.019,-0.02,101.0,103.0,101.0,13.4,1505.2,319.6,-0.7,1.8,2471.108,13.29,0.043,244.0
2023-01-04T00:34:03,42.805,6.029,-0.014,0.004,0.012,102.0,101.0,101.0,13.4,1505.2,328.3,-0.8,1.9,2471.135,13.29,0.014,285.9
2023-01-04T00:37:03,42.805,6.029,-0.043,0.004,0.02,101.0,101.0,102.0,13.4,1505.2,330.5,-0.8,1.8,2471.076,13.29,0.043,275.3
2023-01-04T00:40:03,42.805,6.029,-0.024,-0.022,-0.048,102.0,102.0,102.0,13.4,1505.2,330.0,-0.7,1.8,2471.129,13.29,0.032,227.5
2023-01-04T00:43:03,42.805,6.029,-0.024,0.0,-0.02,100.0,102.0,102.0,13.3,1505.2,326.3,-0.8,1.8,2471.116,13.29,0.024,270.0
2023-01-04T00:46:02,42.805,6.029,0.002,-0.016,-0.049,102.0,100.0,102.0,13.4,1505.2,327.5,-0.7,1.8,2471.126,13.29,0.016,172.9
2023-01-04T00:49:02,42.805,6.029,-0.033,0.014,-0.011,101.0,100.0,102.0,13.4,1505.2,325.3,-0.8,1.8,2471.079,13.29,0.035,293.0
2023-01-04T00:52:02,42.805,6.029,-0.034,-0.002,-0.005,101.0,101.0,102.0,13.3,1505.2,322.8,-0.7,1.8,2471.099,13.29,0.034,266.6
2023-01-04T00:55:02,42.805,6.029,-0.012,0.009,0.015,101.0,102.0,102.0,13.3,1505.2,321.3,-0.7,1.8,2471.119,13.29,0.015,306.9
2023-01-04T00:58:02,42.805,6.029,-0.034,0.003,0.005,102.0,101.0,101.0,13.4,1505.2,335.3,-0.8,1.8,2471.155,13.29,0.034,275.0
2023-01-04T01:04:02,42.805,6.029,0.0,0.001,0.012,104.0,104.0,102.0,13.3,1505.2,316.0,-0.8,1.8,2471.17,13.29,0.001,0.0
2023-01-04T01:07:02,42.805,6.029,0.033,-0.003,0.029,102.0,103.0,103.0,13.4,1505.2,330.9,-0.8,1.9,2471.158,13.29,0.033,95.2
2023-01-04T01:10:03,42.805,6.029,-0.006,-0.014,-0.003,102.0,101.0,102.0,13.4,1505.2,319.0,-0.7,1.8,2471.145,13.29,0.015,203.2
2023-01-04T01:13:03,42.805,6.029,-0.061,0.013,-0.016,103.0,100.0,102.0,13.4,1505.2,325.2,-0.7,1.8,2471.193,13.29,0.062,282.0
2023-01-04T01:16:03,42.805,6.029,-0.023,0.012,-0.015,101.0,101.0,101.0,13.4,1505.2,336.0,-0.8,1.8,2471.152,13.29,0.025,297.6
2023-01-04T01:19:03,42.805,6.029,-0.032,-0.015,-0.021,101.0,102.0,101.0,13.3,1505.2,317.0,-0.8,1.8,2471.159,13.29,0.035,244.9
2023-01-04T01:22:03,42.805,6.029,-0.039,-0.003,-0.019,101.0,102.0,102.0,13.4,1505.2,324.4,-0.8,1.8,2471.132,13.29,0.039,265.6
2023-01-04T01:25:03,42.805,6.029,-0.039,0.0,-0.014,101.0,102.0,102.0,13.3,1505.2,323.9,-0.8,1.8,2471.141,13.29,0.039,270.0
2023-01-04T01:28:03,42.805,6.029,-0.044,-0.002,-0.023,102.0,102.0,101.0,13.4,1505.2,333.0,-0.7,1.8,2471.144,13.29,0.044,267.4
2023-01-04T01:31:03,42.805,6.029,-0.019,0.006,0.026,100.0,102.0,102.0,13.4,1505.2,335.4,-0.8,1.8,2471.147,13.29,0.019,287.5
2023-01-04T01:34:03,42.805,6.029,-0.024,-0.012,-0.014,103.0,99.0,101.0,13.4,1505.2,330.0,-0.8,1.8,2471.156,13.29,0.026,243.4
2023-01-04T01:37:03,42.805,6.029,-0.031,0.0,-0.016,102.0,103.0,101.0,13.4,1505.2,331.0,-0.8,1.8,2471.129,13.29,0.03,270.0
2023-01-04T01:40:03,42.805,6.029,-0.034,0.001,0.0,102.0,104.0,102.0,13.4,1505.2,324.4,-0.8,1.8,2471.149,13.29,0.034,271.7
2023-01-04T01:43:03,42.805,6.029,-0.021,-0.002,0.003,102.0,103.0,102.0,13.4,1505.2,334.6,-0.8,1.8,2471.119,13.29,0.021,264.6
2023-01-04T01:46:03,42.805,6.029,-0.006,-0.023,-0.013,104.0,100.0,101.0,13.4,1505.2,316.0,-0.8,1.9,2471.131,13.29,0.023,194.6
2023-01-04T01:49:03,42.805,6.029,-0.02,0.002,-0.017,102.0,102.0,102.0,13.4,1505.2,320.4,-0.8,1.8,2471.149,13.29,0.02,275.7
2023-01-04T01:52:03,42.805,6.029,-0.031,-0.012,-0.031,102.0,103.0,101.0,13.3,1505.2,328.4,-0.8,1.8,2471.151,13.29,0.033,248.8
2023-01-04T01:55:03,42.805,6.029,-0.035,0.003,-0.013,102.0,102.0,101.0,13.4,1505.2,324.9,-0.8,1.8,2471.126,13.29,0.035,274.9
2023-01-04T01:58:03,42.805,6.029,-0.054,0.008,-0.018,102.0,102.0,101.0,13.4,1505.2,318.3,-0.8,1.8,2471.166,13.29,0.054,278.4
2023-01-04T02:04:03,42.805,6.029,-0.044,-0.019,-0.009,102.0,102.0,101.0,13.4,1505.2,321.2,-0.8,1.8,2471.202,13.29,0.047,246.6
2023-01-04T02:07:03,42.805,6.029,-0.036,-0.001,-0.021,102.0,101.0,102.0,13.4,1505.2,321.0,-0.8,1.8,2471.212,13.29,0.036,268.4
2023-01-04T02:10:03,42.805,6.029,-0.009,-0.003,-0.002,101.0,103.0,101.0,13.4,1505.2,323.4,-0.7,1.8,2471.221,13.29,0.009,251.6
2023-01-04T02:13:03,42.805,6.029,-0.05,0.0,-0.035,101.0,103.0,101.0,13.3,1505.2,328.5,-0.8,1.8,2471.165,13.29,0.05,270.0
2023-01-04T02:16:03,42.805,6.029,-0.011,-0.011,0.015,101.0,102.0,102.0,13.3,1505.2,326.1,-0.7,1.9,2471.178,13.29,0.015,225.0
2023-01-04T02:19:03,42.805,6.029,-0.02,-0.007,0.023,102.0,102.0,102.0,13.4,1505.2,321.9,-0.8,1.8,2471.145,13.29,0.021,250.7
2023-01-04T02:22:03,42.805,6.029,-0.022,-0.013,-0.016,103.0,101.0,101.0,13.4,1505.2,327.7,-0.8,1.8,2471.177,13.29,0.025,239.4
2023-01-04T02:25:03,42.805,6.029,-0.052,-0.013,-0.041,100.0,102.0,101.0,13.4,1505.2,320.4,-0.8,1.8,2471.171,13.29,0.053,256.0
2023-01-04T02:28:06,42.805,6.029,-0.042,-0.006,-0.025,102.0,103.0,102.0,13.4,1505.2,322.7,-0.7,1.8,2471.172,13.29,0.042,261.9
2023-01-04T02:31:03,42.805,6.029,-0.012,-0.011,-0.013,101.0,102.0,102.0,13.4,1505.2,325.0,-0.7,1.8,2471.163,13.29,0.016,227.5
2023-01-04T02:34:03,42.805,6.029,-0.033,0.013,0.0,103.0,100.0,101.0,13.4,1505.2,334.6,-0.7,1.8,2471.186,13.29,0.035,291.5
2023-01-04T02:37:03,42.805,6.029,-0.038,-0.019,0.0,102.0,102.0,102.0,13.4,1505.2,332.4,-0.8,1.8,2471.186,13.29,0.042,243.4
2023-01-04T02:40:03,42.805,6.029,-0.037,0.017,-0.016,103.0,99.0,101.0,13.4,1505.2,337.7,-0.8,1.8,2471.19,13.29,0.04,294.7
2023-01-04T02:43:03,42.805,6.029,-0.017,-0.007,-0.012,102.0,102.0,102.0,13.4,1505.2,321.8,-0.8,1.8,2471.159,13.29,0.018,247.6
2023-01-04T02:46:03,42.805,6.029,-0.03,0.004,0.009,101.0,101.0,102.0,13.4,1505.2,328.1,-0.8,1.8,2471.159,13.29,0.03,277.6
2023-01-04T02:49:03,42.805,6.029,-0.045,0.004,0.008,102.0,102.0,101.0,13.4,1505.2,318.8,-0.7,1.8,2471.192,13.29,0.045,275.1
2023-01-04T02:52:03,42.805,6.029,-0.044,0.009,-0.009,101.0,102.0,102.0,13.4,1505.2,331.8,-0.8,1.8,2471.162,13.29,0.044,281.6
2023-01-04T02:55:03,42.805,6.029,-0.023,-0.006,-0.005,101.0,103.0,101.0,13.4,1505.2,330.9,-0.8,1.8,2471.187,13.29,0.023,255.4
2023-01-04T02:58:03,42.805,6.029,-0.034,-0.013,-0.027,101.0,102.0,102.0,13.4,1505.2,317.9,-0.7,1.8,2471.167,13.29,0.036,249.1
2023-01-04T03:04:03,42.805,6.029,-0.034,-0.012,-0.029,102.0,102.0,102.0,13.4,1505.2,319.4,-0.8,1.8,2471.243,13.29,0.036,250.6
2023-01-04T03:07:03,42.805,6.029,-0.026,-0.009,-0.026,101.0,103.0,102.0,13.4,1505.2,320.4,-0.7,1.8,2471.219,13.29,0.027,250.9
2023-01-04T03:10:03,42.805,6.029,-0.025,-0.001,-0.036,101.0,102.0,102.0,13.4,1505.2,329.2,-0.7,1.8,2471.255,13.29,0.025,267.7
2023-01-04T03:13:03,42.805,6.029,-0.035,0.006,0.006,102.0,101.0,102.0,13.4,1505.2,329.2,-0.7,1.9,2471.222,13.29,0.035,279.7
2023-01-04T03:16:03,42.805,6.029,-0.031,0.012,0.013,103.0,100.0,101.0,13.3,1505.2,335.7,-0.7,1.8,2471.204,13.29,0.033,291.2
2023-01-04T03:19:03,42.805,6.029,-0.035,0.002,0.029,103.0,102.0,101.0,13.3,1505.2,324.9,-0.7,1.8,2471.223,13.29,0.035,273.3
2023-01-04T03:22:03,42.805,6.029,-0.053,0.007,-0.02,102.0,102.0,101.0,13.3,1505.2,333.4,-0.8,1.8,2471.214,13.29,0.053,277.5
2023-01-04T03:25:03,42.805,6.029,-0.05,0.01,-0.012,101.0,102.0,102.0,13.4,1505.2,321.7,-0.7,1.8,2471.231,13.29,0.05,281.3
2023-01-04T03:28:03,42.805,6.029,-0.03,0.003,0.0,102.0,101.0,102.0,13.4,1505.2,322.0,-0.7,1.8,2471.206,13.29,0.03,275.7
2023-01-04T03:31:03,42.805,6.029,-0.031,-0.016,-0.015,101.0,101.0,103.0,13.4,1505.2,328.7,-0.8,1.8,2471.242,13.29,0.034,242.7
2023-01-04T03:34:03,42.805,6.029,-0.026,0.002,0.001,102.0,102.0,102.0,13.4,1505.2,319.4,-0.8,1.8,2471.213,13.29,0.026,274.4
2023-01-04T03:37:03,42.805,6.029,-0.035,0.0,-0.009,102.0,102.0,101.0,13.4,1505.2,325.0,-0.8,1.8,2471.209,13.29,0.035,270.0
2023-01-04T03:40:03,42.805,6.029,-0.021,-0.007,0.016,101.0,102.0,101.0,13.4,1505.2,320.3,-0.8,1.8,2471.227,13.29,0.022,251.6
2023-01-04T03:43:03,42.805,6.029,-0.005,-0.008,0.019,102.0,100.0,103.0,13.4,1505.2,327.0,-0.8,1.8,2471.206,13.29,0.009,212.0
2023-01-04T03:46:03,42.805,6.029,-0.041,-0.006,0.006,102.0,100.0,102.0,13.4,1505.2,325.9,-0.8,1.8,2471.199,13.29,0.041,261.7
2023-01-04T03:49:03,42.805,6.029,-0.028,-0.005,-0.017,101.0,102.0,101.0,13.4,1505.2,327.2,-0.7,1.8,2471.201,13.29,0.028,259.9
2023-01-04T03:52:03,42.805,6.029,-0.017,-0.01,-0.002,102.0,102.0,102.0,13.4,1505.2,322.3,-0.8,1.8,2471.253,13.29,0.019,239.5
2023-01-04T03:55:03,42.805,6.029,-0.041,-0.009,-0.039,102.0,101.0,102.0,13.4,1505.2,322.2,-0.8,1.8,2471.245,13.29,0.041,257.6
2023-01-04T03:58:03,42.805,6.029,0.001,-0.004,0.039,101.0,102.0,102.0,13.4,1505.2,323.4,-0.7,1.8,2471.251,13.29,0.004,166.0
2023-01-04T04:04:03,42.805,6.029,-0.03,-0.011,-0.039,103.0,100.0,102.0,13.4,1505.2,331.9,-0.7,1.8,2471.279,13.28,0.031,249.9
2023-01-04T04:07:03,42.805,6.029,-0.03,-0.012,-0.026,102.0,100.0,102.0,13.4,1505.2,336.9,-0.8,1.8,2471.275,13.29,0.032,248.2
2023-01-04T04:10:03,42.805,6.029,-0.044,0.002,-0.002,102.0,101.0,103.0,13.4,1505.2,321.0,-0.8,1.8,2471.264,13.29,0.044,272.6
2023-01-04T04:13:03,42.805,6.029,-0.043,0.004,-0.007,102.0,102.0,101.0,13.4,1505.2,321.3,-0.8,1.8,2471.243,13.29,0.043,275.3
2023-01-04T04:16:03,42.805,6.029,-0.034,0.001,-0.032,102.0,101.0,102.0,13.3,1505.2,335.7,-0.8,1.8,2471.26,13.29,0.034,271.7
2023-01-04T04:19:03,42.805,6.029,-0.053,-0.007,-0.037,102.0,102.0,100.0,13.4,1505.2,318.6,-0.8,1.8,2471.236,13.29,0.053,262.5
2023-01-04T04:22:03,42.805,6.029,-0.01,0.002,0.047,101.0,101.0,101.0,13.4,1505.2,323.1,-0.7,1.8,2471.29,13.29,0.01,281.3
2023-01-04T04:25:03,42.805,6.029,-0.033,0.01,-0.008,102.0,106.0,105.0,13.4,1505.2,329.6,-0.8,1.8,2471.282,13.29,0.034,286.9
2023-01-04T04:28:03,42.805,6.029,-0.013,-0.008,-0.004,101.0,102.0,101.0,13.4,1505.2,333.8,-0.8,1.8,2471.259,13.29,0.015,238.4
2023-01-04T04:31:03,42.805,6.029,-0.041,0.006,0.012,102.0,101.0,102.0,13.4,1505.2,329.9,-0.8,1.8,2471.291,13.29,0.041,278.3
2023-01-04T04:34:03,42.805,6.029,-0.033,0.002,0.004,102.0,102.0,104.0,13.4,1505.2,325.8,-0.7,1.8,2471.265,13.29,0.033,273.5
2023-01-04T04:37:03,42.805,6.029,-0.007,-0.005,-0.023,101.0,102.0,101.0,13.4,1505.2,319.9,-0.7,1.8,2471.246,13.29,0.008,234.5
2023-01-04T04:40:03,42.805,6.029,-0.033,-0.006,-0.033,101.0,102.0,101.0,13.4,1505.2,323.5,-0.8,1.8,2471.28,13.29,0.033,259.7
2023-01-04T04:43:03,42.805,6.029,-0.041,0.009,-0.003,102.0,101.0,103.0,13.4,1505.2,336.2,-0.7,1.8,2471.222,13.29,0.041,282.4
2023-01-04T04:46:03,42.805,6.029,-0.061,0.011,-0.01,102.0,101.0,101.0,13.3,1505.2,322.6,-0.8,1.8,2471.271,13.29,0.061,280.2
2023-01-04T04:49:03,42.805,6.029,-0.031,-0.008,0.0,102.0,101.0,102.0,13.4,1505.2,326.0,-0.7,1.8,2471.287,13.29,0.032,255.5
2023-01-04T04:52:03,42.805,6.029,-0.032,0.022,-0.005,101.0,101.0,102.0,13.4,1505.2,329.0,-0.7,1.8,2471.265,13.29,0.038,304.5
2023-01-04T04:55:03,42.805,6.029,-0.024,0.022,0.04,101.0,101.0,101.0,13.3,1505.2,322.4,-0.8,1.8,2471.284,13.29,0.032,312.5
2023-01-04T04:58:05,42.805,6.029,-0.026,-0.003,-0.012,101.0,101.0,101.0,13.4,1505.2,325.5,-0.7,1.8,2471.253,13.29,0.026,263.4
2023-01-04T05:04:03,42.805,6.029,-0.031,0.006,0.014,102.0,100.0,103.0,13.4,1505.2,319.0,-0.8,1.8,2471.305,13.28,0.031,281.0
2023-01-04T05:07:03,42.805,6.029,-0.04,-0.007,-0.022,100.0,102.0,102.0,13.4,1505.2,320.3,-0.8,1.8,2471.319,13.29,0.04,260.1
2023-01-04T05:10:03,42.805,6.029,-0.038,0.0,-0.004,102.0,100.0,101.0,13.3,1505.2,330.6,-0.8,1.8,2471.296,13.29,0.038,270.0
2023-01-04T05:13:03,42.805,6.029,-0.052,-0.006,-0.056,102.0,103.0,100.0,13.4,1505.2,335.2,-0.8,1.8,2471.29,13.29,0.052,263.4
2023-01-04T05:16:03,42.805,6.029,-0.036,0.01,-0.013,103.0,101.0,102.0,13.4,1505.2,331.1,-0.7,1.8,2471.275,13.29,0.037,285.5
2023-01-04T05:19:03,42.805,6.029,-0.048,0.011,-0.009,101.0,102.0,101.0,13.4,1505.2,335.5,-0.8,1.8,2471.325,13.29,0.049,282.9
2023-01-04T05:22:03,42.805,6.029,-0.016,0.013,-0.003,102.0,101.0,102.0,13.3,1505.2,336.8,-0.8,1.8,2471.26,13.29,0.02,309.1
2023-01-04T05:25:03,42.805,6.029,-0.027,0.0,0.014,100.0,101.0,102.0,13.3,1505.2,329.8,-0.7,1.8,2471.277,13.29,0.026,270.0
2023-01-04T05:28:03,42.805,6.029,-0.041,0.008,0.008,102.0,102.0,101.0,13.3,1505.2,325.8,-0.8,1.8,2471.253,13.29,0.041,281.0
2023-01-04T05:31:03,42.805,6.029,-0.048,0.024,0.003,102.0,101.0,103.0,13.3,1505.2,337.8,-0.8,1.8,2471.269,13.29,0.053,296.6
2023-01-04T05:34:03,42.805,6.029,-0.035,-0.01,-0.014,101.0,102.0,102.0,13.3,1505.2,327.5,-0.8,1.8,2471.322,13.29,0.036,254.1
2023-01-04T05:37:03,42.805,6.029,-0.062,0.003,-0.009,103.0,102.0,102.0,13.4,1505.2,323.5,-0.8,1.8,2471.275,13.29,0.062,272.8
2023-01-04T05:40:03,42.805,6.029,-0.038,0.004,-0.017,101.0,100.0,102.0,13.4,1505.2,326.5,-0.8,1.8,2471.301,13.29,0.038,276.0
2023-01-04T05:43:03,42.805,6.029,-0.046,0.01,-0.017,101.0,100.0,101.0,13.3,1505.2,335.4,-0.8,1.8,2471.277,13.29,0.047,282.3
2023-01-04T05:46:03,42.805,6.029,-0.057,0.007,-0.008,102.0,102.0,101.0,13.4,1505.2,328.8,-0.8,1.8,2471.308,13.29,0.057,277.0
2023-01-04T05:49:03,42.805,6.029,-0.018,-0.013,-0.026,103.0,100.0,103.0,13.4,1505.2,330.6,-0.8,1.8,2471.277,13.29,0.022,234.2
2023-01-04T05:52:03,42.805,6.029,-0.054,0.014,0.019,102.0,101.0,101.0,13.3,1505.2,318.6,-0.8,1.8,2471.299,13.29,0.055,284.5
2023-01-04T05:55:03,42.805,6.029,-0.049,-0.006,-0.007,103.0,101.0,101.0,13.4,1505.2,317.9,-0.7,1.8,2471.271,13.29,0.049,263.0
2023-01-04T05:58:03,42.805,6.029,-0.045,0.025,0.016,101.0,101.0,101.0,13.3,1505.2,329.9,-0.7,1.8,2471.3,13.29,0.051,299.1
2023-01-04T06:04:03,42.805,6.029,-0.024,0.006,-0.037,101.0,102.0,102.0,13.4,1505.2,321.3,-0.8,1.8,2471.352,13.28,0.024,284.0
2023-01-04T06:07:03,42.805,6.029,-0.04,0.002,-0.017,100.0,103.0,102.0,13.4,1505.2,329.6,-0.8,1.8,2471.341,13.28,0.04,272.9
2023-01-04T06:10:03,42.805,6.029,-0.029,0.006,0.022,103.0,102.0,102.0,13.4,1505.2,323.5,-0.8,1.8,2471.31,13.29,0.029,281.7
2023-01-04T06:13:03,42.805,6.029,-0.03,0.0,-0.016,101.0,101.0,102.0,13.3,1505.2,329.1,-0.8,1.8,2471.328,13.29,0.03,270.0
2023-01-04T06:16:03,42.805,6.029,-0.036,-0.012,0.002,99.0,102.0,102.0,13.4,1505.2,328.7,-0.8,1.8,2471.359,13.29,0.037,251.6
2023-01-04T06:19:03,42.805,6.029,-0.036,0.02,0.002,102.0,102.0,101.0,13.4,1505.2,331.5,-0.7,1.8,2471.301,13.29,0.041,299.1
2023-01-04T06:22:03,42.805,6.029,-0.04,0.012,-0.017,102.0,102.0,102.0,13.4,1505.2,326.3,-0.8,1.8,2471.29,13.29,0.041,286.7
2023-01-04T06:25:03,42.805,6.029,-0.041,0.014,-0.012,103.0,101.0,103.0,13.4,1505.2,329.2,-0.8,1.8,2471.251,13.29,0.043,288.9
2023-01-04T06:28:03,42.805,6.029,-0.049,0.001,-0.004,102.0,102.0,101.0,13.4,1505.2,325.5,-0.8,1.8,2471.322,13.29,0.049,271.2
2023-01-04T06:31:03,42.805,6.029,-0.038,0.002,-0.005,102.0,102.0,102.0,13.3,1505.2,319.9,-0.8,1.8,2471.261,13.29,0.038,273.0
2023-01-04T06:34:03,42.805,6.029,-0.036,0.02,0.002,103.0,102.0,101.0,13.4,1505.2,321.3,-0.8,1.8,2471.256,13.29,0.041,299.1
2023-01-04T06:37:03,42.805,6.029,-0.053,0.038,0.006,101.0,101.0,102.0,13.4,1505.2,336.1,-0.7,1.8,2471.296,13.29,0.065,305.6
2023-01-04T06:40:03,42.805,6.029,-0.043,0.005,-0.012,100.0,103.0,101.0,13.3,1505.2,316.0,-0.7,1.8,2471.299,13.29,0.043,276.6
2023-01-04T06:43:03,42.805,6.029,-0.052,-0.016,-0.027,102.0,101.0,101.0,13.3,1505.2,322.3,-0.8,1.8,2471.294,13.29,0.054,252.9
2023-01-04T06:46:03,42.805,6.029,-0.025,0.021,0.016,102.0,101.0,101.0,13.4,1505.2,338.0,-0.8,1.8,2471.268,13.29,0.032,310.0
2023-01-04T06:49:03,42.805,6.029,-0.038,0.001,-0.023,102.0,100.0,101.0,13.4,1505.2,322.9,-0.7,1.8,2471.28,13.29,0.038,271.5
2023-01-04T06:52:03,42.805,6.029,-0.02,0.001,0.017,103.0,102.0,101.0,13.3,1505.2,330.6,-0.8,1.8,2471.29,13.29,0.02,272.9
2023-01-04T06:55:03,42.805,6.029,-0.057,0.024,0.019,101.0,102.0,101.0,13.3,1505.2,324.8,-0.8,1.8,2471.302,13.29,0.061,292.8
2023-01-04T06:58:03,42.805,6.029,-0.05,-0.02,-0.033,101.0,102.0,101.0,13.4,1505.2,322.6,-0.7,1.8,2471.301,13.29,0.053,248.2
2023-01-04T07:04:03,42.805,6.029,-0.043,0.025,-0.007,102.0,101.0,102.0,13.4,1505.2,337.0,-0.8,1.9,2471.331,13.28,0.049,300.2
2023-01-04T07:07:03,42.805,6.029,-0.018,0.008,-0.001,104.0,101.0,104.0,13.4,1505.2,323.4,-0.8,1.8,2471.343,13.28,0.019,294.0
2023-01-04T07:10:03,42.805,6.029,-0.053,-0.001,-0.004,103.0,101.0,102.0,13.4,1505.2,320.9,-0.7,1.8,2471.314,13.29,0.053,268.9
2023-01-04T07:13:03,42.805,6.029,-0.042,0.036,0.014,102.0,102.0,102.0,13.4,1505.2,339.1,-0.8,1.8,2471.288,13.29,0.055,310.6
2023-01-04T07:16:03,42.805,6.029,-0.062,0.021,-0.024,103.0,103.0,102.0,13.4,1505.2,337.2,-0.7,1.8,2471.289,13.29,0.065,288.7
2023-01-04T07:19:03,42.805,6.029,-0.043,0.018,0.01,102.0,101.0,101.0,13.3,1505.2,323.9,-0.8,1.8,2471.285,13.29,0.046,292.7
2023-01-04T07:22:03,42.805,6.029,-0.032,-0.002,-0.009,103.0,101.0,102.0,13.4,1505.2,319.5,-0.8,1.8,2471.29,13.29,0.032,266.4
2023-01-04T07:25:03,42.805,6.029,-0.05,0.017,0.018,102.0,102.0,101.0,13.3,1505.2,322.7,-0.8,1.8,2471.253,13.29,0.052,288.8
2023-01-04T07:28:03,42.805,6.029,-0.039,0.015,-0.001,102.0,102.0,102.0,13.4,1505.2,333.8,-0.8,1.8,2471.275,13.29,0.041,291.0
2023-01-04T07:31:03,42.805,6.029,-0.044,0.015,0.002,101.0,102.0,101.0,13.4,1505.2,326.5,-0.8,1.8,2471.306,13.29,0.046,288.8
2023-01-04T07:34:03,42.805,6.029,-0.056,0.011,0.0,101.0,101.0,102.0,13.4,1505.2,332.6,-0.7,1.8,2471.271,13.29,0.057,281.1
2023-01-04T07:37:03,42.805,6.029,-0.036,0.014,0.0,101.0,102.0,101.0,13.4,1505.2,333.8,-0.8,1.8,2471.26,13.29,0.038,291.2
2023-01-04T07:40:03,42.805,6.029,-0.019,0.012,-0.021,102.0,101.0,102.0,13.3,1505.2,332.7,-0.8,1.8,2471.289,13.29,0.022,302.3
2023-01-04T07:43:03,42.805,6.029,-0.032,-0.01,-0.01,99.0,101.0,102.0,13.3,1505.2,319.0,-0.8,1.8,2471.257,13.29,0.033,252.6
2023-01-04T07:46:03,42.805,6.029,-0.035,-0.007,-0.013,103.0,102.0,101.0,13.4,1505.2,318.9,-0.8,1.8,2471.267,13.29,0.035,258.7
2023-01-04T07:49:03,42.805,6.029,-0.04,0.002,-0.027,101.0,102.0,100.0,13.3,1505.2,323.1,-0.7,1.8,2471.281,13.29,0.04,272.9
2023-01-04T07:52:03,42.805,6.029,-0.044,0.011,0.0,102.0,101.0,102.0,13.3,1505.2,333.0,-0.8,1.8,2471.275,13.29,0.045,284.0
2023-01-04T07:55:03,42.805,6.029,-0.037,-0.003,-0.01,102.0,102.0,100.0,13.4,1505.2,316.0,-0.8,1.8,2471.289,13.29,0.037,265.4
2023-01-04T07:58:06,42.805,6.029,-0.022,-0.015,-0.009,101.0,104.0,101.0,13.3,1505.2,323.2,-0.7,1.8,2471.258,13.29,0.026,235.7
2023-01-04T08:04:03,42.805,6.029,-0.036,0.001,-0.01,101.0,102.0,101.0,13.3,1505.2,321.0,-0.8,1.9,2471.315,13.28,0.036,271.6
2023-01-04T08:07:03,42.805,6.029,-0.037,0.004,0.003,102.0,101.0,102.0,13.4,1505.2,317.4,-0.7,1.8,2471.314,13.29,0.037,276.2
2023-01-04T08:10:03,42.805,6.029,-0.051,-0.003,-0.031,102.0,102.0,101.0,13.4,1505.2,318.1,-0.8,1.8,2471.291,13.29,0.051,266.6
2023-01-04T08:13:03,42.805,6.029,-0.043,-0.024,-0.046,102.0,101.0,102.0,13.4,1505.2,328.7,-0.8,1.8,2471.29,13.29,0.049,240.8
2023-01-04T08:16:03,42.805,6.029,-0.052,0.032,0.008,101.0,102.0,102.0,13.4,1505.2,335.5,-0.8,1.8,2471.297,13.29,0.061,301.6
2023-01-04T08:19:03,42.805,6.029,-0.049,0.009,0.018,101.0,101.0,102.0,13.4,1505.2,317.6,-0.7,1.8,2471.264,13.29,0.049,280.4
2023-01-04T08:22:03,42.805,6.029,-0.036,0.011,-0.011,102.0,102.0,103.0,13.3,1505.2,322.4,-0.8,1.8,2471.277,13.29,0.037,287.0
2023-01-04T08:25:03,42.805,6.029,-0.05,0.016,-0.002,102.0,101.0,101.0,13.4,1505.2,328.2,-0.8,1.8,2471.276,13.29,0.052,287.7
2023-01-04T08:28:03,42.805,6.029,-0.034,0.013,-0.01,102.0,102.0,102.0,13.4,1505.2,316.4,-0.8,1.8,2471.285,13.29,0.036,290.9
2023-01-04T08:31:03,42.805,6.029,-0.024,-0.005,-0.024,104.0,102.0,101.0,13.4,1505.2,321.0,-0.8,1.8,2471.308,13.29,0.024,258.2
2023-01-04T08:34:03,42.805,6.029,-0.019,-0.014,-0.009,101.0,102.0,101.0,13.4,1505.2,329.4,-0.8,1.8,2471.275,13.29,0.023,233.6
2023-01-04T08:37:03,42.805,6.029,-0.026,0.035,0.02,101.0,101.0,101.0,13.3,1505.2,336.8,-0.7,1.8,2471.277,13.29,0.043,323.4
2023-01-04T08:40:03,42.805,6.029,-0.028,0.014,-0.016,101.0,103.0,102.0,13.4,1505.2,332.0,-0.8,1.8,2471.249,13.29,0.031,296.6
2023-01-04T08:43:03,42.805,6.029,-0.054,0.021,0.013,102.0,102.0,102.0,13.4,1505.2,319.4,-0.7,1.8,2471.244,13.29,0.057,291.2
2023-01-04T08:46:03,42.805,6.029,-0.042,0.019,0.059,102.0,102.0,103.0,13.3,1505.2,322.0,-0.8,1.8,2471.236,13.29,0.046,294.3
2023-01-04T08:49:03,42.805,6.029,-0.04,0.006,0.015,102.0,102.0,102.0,13.3,1505.2,328.7,-0.7,1.8,2471.242,13.29,0.04,278.5
2023-01-04T08:52:03,42.805,6.029,-0.023,0.004,0.025,103.0,102.0,101.0,13.3,1505.2,328.4,-0.8,1.8,2471.256,13.29,0.023,279.9
2023-01-04T08:55:03,42.805,6.029,-0.05,0.025,0.025,101.0,101.0,101.0,13.4,1505.2,326.7,-0.8,1.8,2471.286,13.29,0.055,296.6
2023-01-04T08:58:03,42.805,6.029,-0.069,0.013,0.007,102.0,102.0,102.0,13.3,1505.2,329.4,-0.8,1.8,2471.283,13.29,0.07,280.7
2023-01-04T09:04:03,42.805,6.029,-0.03,-0.006,0.001,103.0,101.0,100.0,13.4,1505.2,317.0,-0.8,1.8,2471.288,13.28,0.03,258.7
2023-01-04T09:07:03,42.805,6.029,-0.054,0.027,0.005,101.0,101.0,101.0,13.3,1505.2,330.3,-0.8,1.8,2471.3,13.28,0.06,296.6
2023-01-04T09:10:03,42.805,6.029,-0.041,0.009,-0.009,101.0,102.0,102.0,13.4,1505.2,324.1,-0.8,1.8,2471.293,13.29,0.041,282.4
2023-01-04T09:13:03,42.805,6.029,-0.047,0.011,-0.014,102.0,102.0,101.0,13.3,1505.2,323.4,-0.8,1.8,2471.283,13.29,0.048,283.2
2023-01-04T09:16:03,42.805,6.029,-0.079,0.025,-0.05,102.0,102.0,102.0,13.4,1505.2,332.1,-0.7,1.8,2471.318,13.29,0.082,287.6
2023-01-04T09:19:03,42.805,6.029,-0.053,0.013,0.025,101.0,102.0,101.0,13.4,1505.2,333.0,-0.8,1.8,2471.275,13.29,0.054,283.8
2023-01-04T09:22:03,42.805,6.029,-0.033,0.031,0.019,102.0,101.0,101.0,13.4,1505.2,335.2,-0.7,1.8,2471.228,13.29,0.045,313.2
2023-01-04T09:25:03,42.805,6.029,-0.047,0.001,-0.014,101.0,101.0,101.0,13.4,1505.2,323.4,-0.8,1.8,2471.268,13.29,0.047,271.2
2023-01-04T09:28:03,42.805,6.029,-0.072,0.007,-0.006,101.0,102.0,102.0,13.3,1505.2,321.6,-0.8,1.8,2471.215,13.29,0.072,275.5
2023-01-04T09:31:03,42.805,6.029,-0.036,0.0,-0.002,100.0,102.0,101.0,13.4,1505.2,318.7,-0.8,1.8,2471.208,13.29,0.036,270.0
2023-01-04T09:34:03,42.805,6.029,-0.058,0.009,0.005,101.0,103.0,101.0,13.4,1505.2,316.6,-0.7,1.8,2471.21,13.29,0.058,278.8
2023-01-04T09:37:03,42.805,6.029,-0.035,0.001,0.008,101.0,101.0,102.0,13.3,1505.2,334.6,-0.8,1.8,2471.212,13.29,0.035,271.6
2023-01-04T09:40:03,42.805,6.029,-0.035,-0.011,-0.016,102.0,101.0,101.0,13.3,1505.2,325.9,-0.8,1.8,2471.22,13.29,0.036,252.6
2023-01-04T09:43:03,42.805,6.029,-0.033,0.006,-0.016,102.0,101.0,102.0,13.4,1505.2,334.8,-0.8,1.8,2471.2,13.29,0.033,280.3
2023-01-04T09:46:03,42.805,6.029,-0.041,0.019,0.025,99.0,100.0,102.0,13.4,1505.2,329.4,-0.7,1.8,2471.229,13.29,0.045,294.9
2023-01-04T09:49:03,42.805,6.029,-0.041,-0.011,-0.03,102.0,101.0,101.0,13.4,1505.2,324.2,-0.8,1.8,2471.253,13.29,0.042,255.0
2023-01-04T09:52:03,42.805,6.029,-0.026,0.007,0.003,101.0,101.0,101.0,13.4,1505.2,319.0,-0.8,1.9,2471.237,13.29,0.026,285.1
2023-01-04T09:55:03,42.805,6.029,-0.06,0.024,0.019,102.0,101.0,101.0,13.4,1505.2,328.4,-0.7,1.8,2471.2,13.29,0.064,291.8